[[{"header":{"parameterUnit":"m.s-1","parameterCategory":1,"la1":30.2991,"la2":30.254,"lo1":-89.0895,"lo2":-89.0444,"dy":0.0017,"dx":0.0017,"nx":28,"ny":28,"refTime":"2023-10-06T21:00:00:Z","depth":0,"parameterNumber":2,"parameterNumberName":"U-component_of_WINDS"},"data":[0,0,0,0,0,0,0,0,0,0,0,0,0,0,0,0,0,0,0,0,0,0,0,0,0,0,0,0,0,0,0,0,0,0,0,0,0,0,0,0,0,0,0,0,0,0,0,0,0,0,0,0,0,0,0,0,0,0,-2.5364,-2.5364,0,-2.5362,-2.5362,-2.5362,-2.5294,-2.5293,-2.5291,-2.5289,-2.5286,-2.5287,-2.5289,0,0,0,0,0,0,0,0,0,0,0,0,0,-2.531,-2.5312,-2.5364,-2.5364,-2.5364,-2.5362,-2.5362,-2.5362,-2.5295,-2.5293,-2.5291,-2.5289,-2.5285,-2.5287,-2.5289,0,0,0,0,0,0,0,0,0,0,0,0,0,-2.5323,-2.5312,-2.5364,-2.5331,-2.5328,-2.5362,-2.5362,-2.5362,-2.5295,-2.5293,-2.529,-2.5288,-2.5285,-2.5287,-2.5289,-2.5355,0,0,-2.5296,-2.5297,0,0,0,0,0,0,0,0,-2.5323,-2.5325,-2.5336,-2.5333,-2.533,-2.5326,-2.5341,-2.536,-2.5296,-2.5307,-2.5289,-2.5286,-2.5301,-2.5302,-2.5307,-2.5355,-2.5355,-2.5296,-2.5298,-2.5299,-2.5299,0,0,0,0,0,0,0,-2.5322,-2.5325,-2.5363,-2.5336,-2.5332,-2.5315,-2.5314,-2.5345,-2.5319,-2.5306,-2.5301,-2.5302,-2.5299,-2.5305,-2.5307,-2.5355,-2.5296,-2.5298,-2.53,-2.5301,-2.5458,-2.546,0,0,0,0,0,0,-2.5326,-2.5325,-2.5363,-2.5363,-2.532,-2.5318,-2.5317,-2.533,-2.5318,-2.5314,-2.5304,-2.5299,-2.5303,-2.5304,-2.5306,-2.5383,-2.5299,-2.5301,-2.5302,-2.5455,-2.5458,-2.5461,0,0,0,0,0,0,-2.5325,-2.533,-2.5363,-2.5343,-2.5346,-2.5322,-2.5337,-2.5331,-2.5337,-2.5317,-2.5312,-2.5315,-2.5301,-2.5303,-2.5344,-2.5382,-2.5302,-2.5304,-2.5452,-2.5456,-2.546,-2.5538,0,0,0,0,0,0,-2.5324,-2.533,-2.5355,-2.5344,-2.5347,-2.5402,-2.5339,-2.5333,-2.5341,-2.5334,-2.5326,-2.5322,-2.5299,-2.5341,-2.5346,-2.5384,-2.5306,-2.5448,-2.5454,-2.5459,-2.5532,-2.5544,-2.5555,0,0,0,0,0,-2.5322,-2.5377,-2.5357,-2.5362,-2.5378,-2.5404,-2.5406,-2.5378,-2.5345,-2.5369,-2.5357,-2.5322,-2.5377,-2.5346,-2.5351,-2.539,-2.5446,-2.5452,-2.5458,-2.5527,-2.5542,-2.5555,0,0,0,0,0,0,-2.5392,-2.5375,-2.5352,-2.5405,-2.5407,-2.5393,-2.5423,-2.5395,-2.5406,-2.5399,-2.5363,-2.5362,-2.5409,-2.5403,-2.5368,-2.5454,-2.5405,-2.5413,-2.5456,-2.547,-2.5481,-2.5482,-2.5308,0,0,0,0,0,-2.5414,-2.5437,-2.542,-2.5468,-2.547,-2.5447,-2.5457,-2.5436,-2.5436,-2.5436,-2.5426,-2.5427,-2.5445,-2.5457,-2.5472,-2.5531,-2.5528,-2.556,-2.5572,-2.5581,-2.5588,-2.562,-2.5634,-2.5482,-2.5482,-2.5482,0,0,-2.5459,-2.5452,-2.5469,-2.5482,-2.5481,-2.5506,-2.5448,-2.5476,-2.5493,-2.544,-2.5478,-2.5471,-2.547,-2.5521,-2.5542,-2.5517,-2.563,-2.5589,-2.5597,-2.5599,-2.5628,-2.5642,-2.5655,-2.5486,-2.5486,-2.5485,0,0,-2.5554,-2.5551,-2.5591,-2.5591,-2.559,-2.5574,-2.5584,-2.5575,-2.5568,-2.5606,-2.5566,-2.5587,-2.5618,-2.5619,-2.5623,-2.5719,-2.5688,-2.5725,-2.5785,-2.5816,-2.5828,-2.5839,-2.5873,-2.5886,-2.5732,-2.5732,-2.5732,0,-2.561,-2.5645,-2.5615,-2.5646,-2.5653,-2.5607,-2.5647,-2.5648,-2.5652,-2.5658,-2.5631,-2.5669,-2.5665,-2.5715,-2.5739,-2.5744,-2.5754,-2.5726,-2.5829,-2.5839,-2.5848,-2.5881,-2.5894,-2.5737,-2.5736,-2.5736,-2.5735,0,-2.5714,-2.574,-2.5772,-2.5778,-2.5789,-2.5824,-2.5799,-2.5814,-2.5792,-2.5779,-2.5818,-2.5812,-2.5825,-2.5835,-2.5814,-2.5883,-2.5867,-2.5835,-2.5786,-2.5868,-2.5898,-2.591,-2.5743,-2.5742,-2.574,-2.5739,0,0,-2.5853,-2.5842,-2.5854,-2.5857,-2.5853,-2.5871,-2.5905,-2.5918,-2.5931,-2.5936,-2.5963,-2.5991,-2.5961,-2.5966,-2.5944,-2.5971,-2.6048,-2.5935,-2.5935,-2.5957,-2.6124,-2.6149,-2.6164,-2.6028,-2.603,-2.6032,-2.6125,0,-2.5944,-2.6001,-2.5976,-2.6035,-2.6059,-2.6015,-2.6044,-2.6045,-2.6034,-2.6052,-2.6039,-2.6059,-2.6018,-2.6021,-2.6046,-2.6034,-2.6082,-2.6027,-2.6053,-2.6054,-2.6055,-2.618,-2.6206,-2.6293,-2.6136,-2.6138,-2.6139,0,-2.6059,-2.6069,-2.6131,-2.6124,-2.6132,-2.6159,-2.6169,-2.6187,-2.6187,-2.6177,-2.6184,-2.6156,-2.6188,-2.6139,-2.6183,-2.6147,-2.6156,-2.6152,-2.6154,-2.6156,-2.6102,-2.6185,-2.6321,-2.6334,-2.6158,-2.6156,-2.6155,0,-2.6154,-2.6183,-2.6224,-2.6227,-2.6219,-2.6239,-2.6237,-2.6234,-2.6244,-2.6253,-2.6259,-2.6272,-2.6279,-2.6289,-2.6265,-2.6232,-2.6313,-2.6262,-2.6306,-2.6307,-2.6325,-2.6324,-2.6465,-2.6331,-2.633,-2.633,-2.633,0,-2.6259,-2.6299,-2.6267,-2.6292,-2.6336,-2.6306,-2.635,-2.6342,-2.634,-2.6364,-2.6326,-2.6349,-2.6316,-2.6335,-2.6317,-2.6357,-2.636,-2.6353,-2.6347,-2.6356,-2.6357,-2.6362,-2.6355,-2.6334,-2.6333,-2.6332,-2.6332,0,-2.6373,-2.6353,-2.6395,-2.6384,-2.6382,-2.6415,-2.6406,-2.6429,-2.6415,-2.6445,-2.645,-2.6429,-2.645,-2.6428,-2.6446,-2.6434,-2.6488,-2.6473,-2.6488,-2.6484,-2.6529,-2.6525,-2.6678,-2.6696,-2.655,-2.6552,-2.6553,0,-2.6441,-2.6471,-2.6464,-2.6477,-2.6477,-2.6498,-2.6508,-2.648,-2.6492,-2.6495,-2.6518,-2.6535,-2.6548,-2.6583,-2.657,-2.6584,-2.657,-2.6622,-2.6572,-2.658,-2.6571,-2.657,-2.6573,-2.6633,-2.6634,-2.6636,-2.6637,0,-2.6565,-2.6554,-2.657,-2.6583,-2.6597,-2.6606,-2.6611,-2.6624,-2.6595,-2.661,-2.6631,-2.6641,-2.6661,-2.6679,-2.669,-2.6687,-2.6658,-2.6653,-2.6664,-2.6673,-2.6681,-2.6678,-2.6516,-2.665,-2.6648,-2.6647,-2.6647,-2.6646,-2.6658,-2.6683,-2.6682,-2.6701,-2.6703,-2.671,-2.6731,-2.6721,-2.6738,-2.6752,-2.6734,-2.6761,-2.676,-2.6771,-2.6772,-2.6792,-2.677,-2.6785,-2.6789,-2.6794,-2.6801,-2.6678,-2.6794,-2.6793,-2.6793,-2.6793,-2.6792,0,-2.678,-2.6778,-2.6796,-2.6806,-2.6821,-2.6793,-2.6798,-2.6813,-2.6836,-2.6839,-2.6852,-2.6877,-2.6895,-2.6883,-2.6898,-2.6916,-2.6903,-2.6921,-2.6919,-2.6919,-2.682,-2.6809,-2.6931,-2.6931,-2.6931,-2.6931,-2.6931,-2.6931,-2.6845,-2.6886,-2.6875,-2.6916,-2.6913,-2.6939,-2.6944,-2.695,-2.6952,-2.6982,-2.6996,-2.6988,-2.6985,-2.7,-2.7015,-2.7011,-2.7018,-2.7041,-2.7033,-2.694,-2.6926,-2.6913,-2.6903,-2.7043,-2.7043,-2.713,-2.7131,-2.7132]},{"header":{"parameterUnit":"m.s-1","parameterCategory":1,"la1":30.2991,"la2":30.254,"lo1":-89.0895,"lo2":-89.0444,"dy":0.0017,"dx":0.0017,"nx":28,"ny":28,"refTime":"2023-10-06T21:00:00:Z","depth":0,"parameterNumber":3,"parameterNumberName":"V-component_of_WINDS"},"data":[0,0,0,0,0,0,0,0,0,0,0,0,0,0,0,0,0,0,0,0,0,0,0,0,0,0,0,0,0,0,0,0,0,0,0,0,0,0,0,0,0,0,0,0,0,0,0,0,0,0,0,0,0,0,0,0,0,0,-2.3283,-2.3283,0,-2.3293,-2.3294,-2.3294,-2.3277,-2.3277,-2.3276,-2.3275,-2.3285,-2.3286,-2.3286,0,0,0,0,0,0,0,0,0,0,0,0,0,-2.3249,-2.3249,-2.3283,-2.3283,-2.3283,-2.3293,-2.3294,-2.3294,-2.3277,-2.3277,-2.3276,-2.3275,-2.3285,-2.3286,-2.3287,0,0,0,0,0,0,0,0,0,0,0,0,0,-2.3262,-2.325,-2.3283,-2.3276,-2.3276,-2.3293,-2.3294,-2.3294,-2.3277,-2.3276,-2.3276,-2.3275,-2.3284,-2.3286,-2.3287,-2.3311,0,0,-2.329,-2.3291,0,0,0,0,0,0,0,0,-2.3261,-2.3263,-2.3277,-2.3277,-2.3276,-2.3283,-2.3285,-2.3299,-2.3278,-2.3277,-2.3275,-2.3274,-2.3285,-2.3286,-2.329,-2.3311,-2.3312,-2.329,-2.3291,-2.3292,-2.3292,0,0,0,0,0,0,0,-2.326,-2.3262,-2.3287,-2.3277,-2.3277,-2.3273,-2.3274,-2.3288,-2.3285,-2.3277,-2.3276,-2.3277,-2.3285,-2.3289,-2.329,-2.3312,-2.329,-2.3291,-2.3292,-2.3293,-2.3354,-2.3355,0,0,0,0,0,0,-2.326,-2.3262,-2.3287,-2.3287,-2.3267,-2.3274,-2.3275,-2.3282,-2.3285,-2.3285,-2.3278,-2.3276,-2.3287,-2.3289,-2.329,-2.3319,-2.3292,-2.3293,-2.3293,-2.3353,-2.3355,-2.3356,0,0,0,0,0,0,-2.326,-2.3263,-2.3286,-2.3274,-2.3277,-2.3276,-2.3283,-2.3282,-2.3287,-2.3286,-2.3286,-2.3282,-2.3287,-2.3289,-2.3306,-2.3319,-2.3293,-2.3294,-2.3352,-2.3354,-2.3355,-2.3377,0,0,0,0,0,0,-2.3259,-2.3262,-2.3272,-2.3275,-2.3278,-2.3302,-2.3284,-2.3283,-2.3289,-2.3287,-2.329,-2.329,-2.3286,-2.3304,-2.3307,-2.332,-2.3295,-2.3351,-2.3353,-2.3355,-2.3375,-2.3379,-2.3382,0,0,0,0,0,-2.3257,-2.3277,-2.3272,-2.3275,-2.3289,-2.3303,-2.3305,-2.33,-2.329,-2.3299,-2.3299,-2.329,-2.3317,-2.3306,-2.3309,-2.3323,-2.335,-2.3352,-2.3355,-2.3373,-2.3378,-2.3382,0,0,0,0,0,0,-2.3275,-2.3277,-2.3272,-2.3293,-2.3298,-2.33,-2.3312,-2.3305,-2.3313,-2.3311,-2.3304,-2.3305,-2.3324,-2.3325,-2.3313,-2.3347,-2.3332,-2.3335,-2.3345,-2.335,-2.3353,-2.3352,-2.3296,0,0,0,0,0,-2.3281,-2.3292,-2.3294,-2.3312,-2.3315,-2.3313,-2.3319,-2.3315,-2.332,-2.3322,-2.3323,-2.3327,-2.3337,-2.3343,-2.3352,-2.3375,-2.3376,-2.3386,-2.3389,-2.3392,-2.3395,-2.3407,-2.3412,-2.3363,-2.3363,-2.3363,0,0,-2.3294,-2.3297,-2.3304,-2.3316,-2.3319,-2.3331,-2.3315,-2.3328,-2.3336,-2.3323,-2.334,-2.3341,-2.3346,-2.3366,-2.3375,-2.3368,-2.3409,-2.3395,-2.3397,-2.3398,-2.341,-2.3415,-2.3419,-2.3364,-2.3364,-2.3364,0,0,-2.3323,-2.3327,-2.3343,-2.3347,-2.3353,-2.3351,-2.3355,-2.3359,-2.3359,-2.3376,-2.3367,-2.3377,-2.3394,-2.3398,-2.3402,-2.3434,-2.3426,-2.3437,-2.3456,-2.3468,-2.3472,-2.3475,-2.3487,-2.3491,-2.344,-2.344,-2.344,0,-2.3339,-2.3356,-2.3352,-2.3365,-2.3371,-2.3361,-2.3377,-2.3381,-2.3389,-2.3393,-2.3385,-2.3406,-2.3409,-2.343,-2.3438,-2.3442,-2.3446,-2.3437,-2.3472,-2.3475,-2.3478,-2.3489,-2.3494,-2.3441,-2.3441,-2.3441,-2.3441,0,-2.3375,-2.3387,-2.3399,-2.3408,-2.3415,-2.343,-2.3428,-2.3435,-2.3431,-2.3431,-2.3448,-2.3451,-2.3461,-2.3466,-2.3461,-2.3487,-2.3482,-2.3473,-2.3458,-2.3484,-2.3495,-2.3499,-2.3443,-2.3443,-2.3442,-2.3442,0,0,-2.3414,-2.3421,-2.3426,-2.343,-2.3436,-2.3445,-2.346,-2.347,-2.3477,-2.3483,-2.3495,-2.351,-2.3502,-2.3507,-2.3503,-2.3514,-2.354,-2.3504,-2.3504,-2.351,-2.3568,-2.3574,-2.3579,-2.3535,-2.3536,-2.3536,-2.3567,0,-2.3443,-2.3469,-2.3466,-2.349,-2.3502,-2.3493,-2.3506,-2.3511,-2.3511,-2.3521,-2.3521,-2.3532,-2.3521,-2.3524,-2.3534,-2.3534,-2.3551,-2.3532,-2.3546,-2.3546,-2.3544,-2.3584,-2.3591,-2.362,-2.3571,-2.3572,-2.3573,0,-2.3481,-2.3489,-2.3515,-2.352,-2.3525,-2.3536,-2.3545,-2.3555,-2.3561,-2.356,-2.3566,-2.3561,-2.3576,-2.3561,-2.3581,-2.3569,-2.3574,-2.3575,-2.3576,-2.3577,-2.3561,-2.3586,-2.3629,-2.3634,-2.3579,-2.3578,-2.3578,0,-2.3507,-2.3525,-2.3542,-2.3546,-2.3553,-2.3561,-2.3564,-2.3569,-2.3576,-2.3584,-2.3588,-2.3597,-2.3603,-2.361,-2.3608,-2.3597,-2.3628,-2.3613,-2.3628,-2.3628,-2.3634,-2.3634,-2.3679,-2.3639,-2.3639,-2.3639,-2.3639,0,-2.354,-2.3556,-2.3554,-2.3565,-2.3583,-2.358,-2.3597,-2.3599,-2.3604,-2.3615,-2.3608,-2.3619,-2.3615,-2.3625,-2.3623,-2.364,-2.3643,-2.3643,-2.3642,-2.3643,-2.3643,-2.3646,-2.3644,-2.364,-2.364,-2.3639,-2.3639,0,-2.3571,-2.3571,-2.359,-2.3595,-2.3597,-2.361,-2.3614,-2.3624,-2.3624,-2.3639,-2.3642,-2.3642,-2.3654,-2.3652,-2.3665,-2.3664,-2.3686,-2.3682,-2.3684,-2.3683,-2.3698,-2.3696,-2.3746,-2.3752,-2.3708,-2.3709,-2.3709,0,-2.3592,-2.3604,-2.3611,-2.3618,-2.3622,-2.3633,-2.364,-2.3638,-2.3645,-2.3653,-2.3663,-2.3674,-2.3683,-2.3702,-2.3704,-2.3714,-2.3711,-2.3728,-2.3712,-2.3713,-2.3711,-2.371,-2.3711,-2.373,-2.3731,-2.3731,-2.3732,0,-2.3628,-2.3628,-2.3638,-2.3649,-2.3657,-2.3665,-2.3673,-2.3679,-2.3677,-2.3686,-2.3698,-2.3705,-2.3719,-2.3731,-2.3741,-2.3743,-2.3737,-2.3737,-2.374,-2.3741,-2.3742,-2.3742,-2.3691,-2.3735,-2.3735,-2.3735,-2.3734,-2.3734,-2.3655,-2.3666,-2.3672,-2.3684,-2.369,-2.3697,-2.3707,-2.3709,-2.372,-2.3731,-2.3729,-2.3743,-2.3749,-2.3762,-2.3766,-2.3777,-2.3771,-2.3776,-2.3778,-2.3779,-2.3781,-2.3741,-2.3779,-2.3779,-2.3778,-2.3778,-2.3778,0,-2.3691,-2.3695,-2.3706,-2.3717,-2.3727,-2.3721,-2.3729,-2.3737,-2.375,-2.3756,-2.3766,-2.378,-2.3792,-2.3794,-2.3805,-2.3813,-2.3811,-2.3816,-2.3815,-2.3816,-2.3786,-2.3781,-2.3818,-2.3818,-2.3818,-2.3818,-2.3818,-2.3818,-2.3711,-2.3729,-2.3729,-2.375,-2.3754,-2.3768,-2.3773,-2.378,-2.3785,-2.3802,-2.3812,-2.3814,-2.3819,-2.383,-2.3841,-2.3841,-2.3845,-2.3852,-2.3851,-2.3822,-2.3818,-2.3814,-2.381,-2.3853,-2.3853,-2.3881,-2.3881,-2.3881]}]]